Regional Weather Roundup
Issued by NWS

Home | Current Version | Previous Version | Text Only | Print | Product List | Glossary On
Versions: 1 2 3 4 5 6 7 8 9 10 11 12 13 14 15 16 17 18 19 20 21 22 23 24 25 26 27 28 29 30 31 32 33 34 35 36 37 38 39 40 41 42 43 44 45 46 47 48 49 50
353
ASUS44 KLIX 241205
RWRLA
LOUISIANA WEATHER ROUNDUP
NATIONAL WEATHER SERVICE NEW ORLEANS LA
700 AM CDT FRI OCT 24 2014

NOTE: "FAIR" INDICATES FEW OR NO CLOUDS BELOW 12,000 FEET WITH NO
      SIGNIFICANT WEATHER AND/OR OBSTRUCTIONS TO VISIBILITY.
      SKY/WX - SKY CONDITION AND SIGNIFICANT WEATHER.
      TMP - AIR TEMPERATURE.    DP   - DEWPOINT TEMPERATURE.
      RH  - RELATIVE HUMIDITY.  PRES - PRESSURE.
      HX  - HEAT INDEX.         WCI  - WIND CHILL INDEX.

*  THESE STATIONS ARE NOT NWS OR FAA STATIONS AND ARE NOT UNDER
   NWS QUALITY CONTROL.

LAZ040-048-061>063-065-066-069-241300-
SOUTHEAST LOUISIANA

CITY           SKY/WX    TMP DP  RH WIND       PRES   REMARKS
N.O. AUDUBON   NOT AVBL
N.O. INTL ARPT PTCLDY    60  51  72 NE7       30.09S
6HR MIN TEMP:  59; 6HR MAX TEMP:  64;

N.O. LAKEFRONT CLEAR     63  51  65 NE14      30.09S
6HR MIN TEMP:  62; 6HR MAX TEMP:  67;

N.O. DOWNTOWN* FAIR      59  46  63 NE3       30.09S
6HR MIN TEMP:  59; 6HR MAX TEMP:  64;

SLIDELL        CLEAR     48  46  93 CALM      30.09S
6HR MIN TEMP:  48; 6HR MAX TEMP:  53;

BATON ROUGE    CLEAR     47  45  93 CALM      30.12R
6HR MIN TEMP:  47; 6HR MAX TEMP:  53;

BOOTHVILLE     CLEAR     67  57  70 N6        30.07R
6HR MIN TEMP:  66; 6HR MAX TEMP:  69;

BELLE CHASSE   PTCLDY    51  48  89 N3        30.09R
6HR MIN TEMP:  51; 6HR MAX TEMP:  56;

BOGALUSA*        N/A     46  43  90 CALM      30.12R
6HR MIN TEMP:  45; 6HR MAX TEMP:  53;

NEW ROADS*     FAIR      48  47  97 CALM      30.13R
6HR MIN TEMP:  47; 6HR MAX TEMP:  53;

GONZALES*      FAIR      49  49 100 CALM      30.11R
6HR MIN TEMP:  49; 6HR MAX TEMP:  55;

HAMMOND*       CLEAR     48  45  87 CALM      30.12R
HOUMA*         NOT AVBL
PORT FOURCHON* SUNNY     63  55  77 N9        30.11R

$$

LAZ041-044-053-054-241300-
SOUTHWEST LOUISIANA

CITY           SKY/WX    TMP DP  RH WIND       PRES   REMARKS
LAKE CHARLES   CLEAR     51  48  89 N3        30.13R
6HR MIN TEMP:  51; 6HR MAX TEMP:  54;

LAFAYETTE      CLEAR     50  49  96 N6        30.12R
6HR MIN TEMP:  50; 6HR MAX TEMP:  54;

PATTERSON      CLEAR     52  50  93 NE3       30.12R
6HR MIN TEMP:  52; 6HR MAX TEMP:  57;

SALT POINT       N/A     55  52  89 VRB3      30.09R
6HR MIN TEMP:  55; 6HR MAX TEMP:  60;

NEW IBERIA     CLEAR     51  49  92 N7        30.12R
6HR MIN TEMP:  50; 6HR MAX TEMP:  56;

CHENAULT AIRPK CLEAR     50  48  93 VRB3      30.14R

$$

LAZ027-028-241300-
CENTRAL LOUISIANA

CITY           SKY/WX    TMP DP  RH WIND       PRES   REMARKS
FORT POLK      CLEAR     51  49  92 NE5       30.14R
6HR MIN TEMP:  51; 6HR MAX TEMP:  53;

ALEXANDRIA INT CLEAR     45  44  97 CALM      30.13S
6HR MIN TEMP:  44; 6HR MAX TEMP:  49;

ALEXANDRIA     PTCLDY    43  42  97 CALM      30.14S FOG
6HR MIN TEMP:  43; 6HR MAX TEMP:  45;


$$

LAZ001-002-241300-
NORTHWEST LOUISIANA

CITY           SKY/WX    TMP DP  RH WIND       PRES   REMARKS
SHREVEPORT     CLEAR     49  48  97 CALM      30.16R
6HR MIN TEMP:  49; 6HR MAX TEMP:  53;

BARKSDALE AFB  CLEAR     47  47  99 CALM      30.16S
6HR MIN TEMP:  47; 6HR MAX TEMP:  51;

DTN SHREVEPORT CLEAR     50  47  89 CALM      30.16S
6HR MIN TEMP:  48; 6HR MAX TEMP:  53;


$$

LAZ014-016-241300-
NORTHEAST LOUISIANA

CITY           SKY/WX    TMP DP  RH WIND       PRES   REMARKS
MONROE         CLEAR     44  42  93 CALM      30.16S
6HR MIN TEMP:  44; 6HR MAX TEMP:  50;

TALLULAH       FOG       39  38  96 NW3       30.14S VSB 1
6HR MIN TEMP:  38; 6HR MAX TEMP:  47;


$$




USA.gov is the U.S. government's official web portal to all federal, state and local government web resources and services.